sat.trackr.live / text

‹ back to catalog

STARLINK-34371

NORAD 64756 · 2025-147B

PAYLOAD ACTIVE UNKNOWN

§ Identity

Operator
Country
US
Launch date
2025-07-08
Launch site
AFETR
Launch vehicle
Mass (kg)
RCS (m²)

Purposes: comms

External: N2YO · Heavens-Above · Gunter

§ Orbital elements

Epoch: 2026-05-24T23:30:35.476128Z

Period
94.01 min
Inclination
53.1569°
Eccentricity
0.0001089
Mean motion
15.31719158 rev/d
Perigee alt
469.9 km
Apogee alt
471.4 km
Semi-major
6,848.8 km
B*
4.9664e-4
RAAN
248.2830°
Arg perigee
69.3450°
Mean anomaly
290.7668°
Rev number
5,038

§ Raw data

STARLINK-343711 64756U 25147B   26144.97957727  .00015087  00000+0  49664-3 0  99992 64756  53.1569 248.2830 0001089  69.3450 290.7668 15.31719158 50386

JSON: /api/v1/satellites/64756 · /tle

For live sub-satellite position, see the globe view (requires WebGL).

§ Visibility from observer

Set your observer location to see the next 7 days of passes ≥ 10°. The values pass through the URL so the page stays shareable.

No JS? Fill the form by hand. The geolocation button needs JavaScript.